Regional Weather Roundup
Issued by NWS Grand Forks, ND

Home | Current Version | Previous Version | Text Only | Print | Product List | Glossary On
Versions: 1 2 3 4 5 6 7 8 9 10 11 12 13 14 15 16 17 18 19 20 21 22 23 24 25 26 27 28 29 30 31 32 33 34 35 36 37 38 39 40 41 42 43 44 45 46 47 48 49 50
000
ASUS43 KFGF 280331
RWRFGF
PRAIRIE TO PINES  WEATHER ROUNDUP
NATIONAL WEATHER SERVICE EASTERN NORTH DAKOTA/GRAND FORKS ND
1000 PM CDT THU AUG 27 2015

 **SATELLITE DATA USED TO AUGMENT SKY COVER AT AUTOMATED STATIONS**
 *****  WEATHER ACROSS EASTERN NORTH DAKOTA  *****

CITY           SKY/WX    TMP DP  RH WIND       PRES   REMARKS
GRAND FORKS    PTCLDY    67  63  87 S5        29.88F
GRAND FRKS AFB CLEAR     65  63  93 S7        29.89F
GRAND FRKS NWS   N/A     68 N/A N/A S2          N/A
DEVILS LAKE    CLEAR     70  63  78 SE6       29.88R
FARGO          PTCLDY    71  66  84 SE7       29.91R
WAHPETON ARPT  PTCLDY    68  63  83 SE7       29.94S
$$

 ***** WEATHER ACROSS CENTRAL AND WESTERN NORTH DAKOTA  *****

CITY           SKY/WX    TMP DP  RH WIND       PRES   REMARKS
BISMARCK       PTCLDY    69  61  75 S6        29.92R
MINOT          FAIR      70  63  78 SE3       29.87R
JAMESTOWN      CLEAR     70  67  90 S6        29.91R
MINOT AFB      CLEAR     67  67 100 S7        29.85S
GARRISON         N/A     67  62  84 S3        29.89S
WILLISTON      PTCLDY    74  65  73 CALM      29.88S
DICKINSON      MOCLDY    69  57  65 S9        29.92R
HETTINGER      PTCLDY    69  56  62 S5        29.97R
$$

 *****  OTHER AIRPORT OBSERVATIONS IN OUR AREA  *****

CITY           SKY/WX    TMP DP  RH WIND       PRES   REMARKS
WALHALLA       FAIR      64  64 100 MISG      29.86F
GRAFTON AIRPOR FAIR      64  64 100 S8        29.88S
VALLEY CITY AR FAIR      68  68 100 S5        29.92S
CANDO          FAIR      63  61  94 SE6       29.88F
CAVALIER APRT  FAIR      64  61  88 S3        29.87R
GWINNER          N/A     66  66 100 SW5       29.93S
SHEYENNE NWR     N/A     67  65  93 S5        29.95S
ROLLA          CLOUDY    59  59 100 SW7       29.90S
 ***** THE ABOVE OBSERVATIONS ARE NON NWS ARE NOT QUALITY
       CONTROLLED AND MAY MIS-REPORT RAIN FOR SNOW...
$$

  *****  WEATHER ACROSS NORTHERN MINNESOTA  *****

CITY           SKY/WX    TMP DP  RH WIND       PRES   REMARKS
FLAG ISLAND    CLEAR     66  63  88 CALM      29.89S FOG
WARROAD        CLEAR     63  57  82 CALM      29.91S
ROSEAU         CLEAR     63  57  82 CALM      29.90F
HALLOCK        CLEAR     66  61  82 SE8       29.87F
THF RVR FALLS  CLEAR    N/A N/A N/A S7        29.90F
BAUDETTE       CLEAR     64  60  87 S3        29.91F
WASKISH        PTCLDY    66  63  88 SE3       29.93F
CROOKSTON      CLEAR     64  63  94 S7        29.91F
STEPHEN NDAWN    N/A     63  63 100 SE3         N/A
GREENBUSH NDAW   N/A    N/A N/A N/A S3          N/A
$$
  *****  WEATHER ACROSS CENTRAL AND WEST MINNESOTA  *****

CITY           SKY/WX    TMP DP  RH WIND       PRES   REMARKS
FOSSTON        PTCLDY    61  59  94 CALM      29.94F FOG
BEMIDJI        CLEAR     63  62  97 CALM      29.94F
PARK RAPIDS    MOCLDY    67  62  84 S5        29.96S
ELBOW LAKE     FAIR      67  65  96 SE6       29.96R
WADENA         MOCLDY    64  61  88 CALM      29.96S
DETROIT LAKES  PTCLDY    64  63  94 S5        29.96S
MOORHEAD       PTCLDY    68  64  88 SE7       29.93R
FERGUS FALLS   MOCLDY    66  64  94 SE6       29.94R
MORRIS MN      MOCLDY    66  64  94 SE7       29.95R
STAPLES        MOCLDY    64  63  94 SE5       29.96S
$$
  *****  WEATHER ELSEWHERE ACROSS MINNESOTA  *****

CITY           SKY/WX    TMP DP  RH WIND       PRES   REMARKS
DULUTH         CLOUDY    59  53  80 SE3       30.00F
INTRNTL FALLS  CLOUDY    65  60  84 CALM      29.94S
ELY            CLOUDY    64  55  72 S6        29.99S
CLOQUET        CLOUDY    59  52  77 E3        30.00F
WHEATON        MOCLDY    64  63  94 SE5       29.96R
BRAINERD       CLOUDY    67  62  84 S7        29.98S
HIBBING        CLOUDY    66  60  81 SE6       29.98F
ALEXANDRIA     MOCLDY    67  65  93 SE8       29.98S
SAINT CLOUD    MOCLDY    63  61  93 SE7       29.98F
MINNEAPOLIS    MOCLDY    68  59  73 S10       30.00F
$$

  *****  WEATHER ACROSS SOUTH DAKOTA  *****

CITY           SKY/WX    TMP DP  RH WIND       PRES   REMARKS
SIOUX FALLS    LGT RAIN  67  64  90 E9        29.96F
BROOKINGS      CLOUDY    66  63  88 S12       29.96F
WATERTOWN      CLOUDY    70  65  84 SE6       29.96R
HURON          LGT RAIN  71  68  90 E8        29.91F
SISSETON         N/A     67  65  93 S5        29.93R
ABERDEEN       CLOUDY    68  65  90 SE6       29.93S
MITCHELL       LGT RAIN  68  67  96 E12       29.90F
PIERRE         CLOUDY    69  67  93 E7        29.92S
MOBRIDGE       MOCLDY    66  65  96 SE3       29.92R
RAPID CITY     CLEAR     63  60  90 CALM      30.03R
$$

  *****  SOME WEATHER IN NEARBY STATES *****

CITY           SKY/WX    TMP DP  RH WIND       PRES   REMARKS
GLASGOW MT     PTCLDY    75  55  49 CALM      29.87R
GREAT FALLS MT CLOUDY    74  37  26 SW14      29.98R HAZE
CHEYENNE WY    PTCLDY    65  50  58 CALM      30.19S
SCOTTSBLUFF NE PTCLDY    65  57  75 NE3       30.06R
OMAHA NE       CLOUDY    73  67  81 SE17      29.94R
DES MOINES IA  MOCLDY    69  60  73 SE13G20   30.02R
DAVENPORT IA   PTCLDY    62  59  90 E6        30.09F
CHICAGO IL     MOCLDY    65  56  72 E3        30.14R
EAU CLAIRE WI  MOCLDY    66  58  75 S7        30.04F
LA CROSSE WI   MOCLDY    67  60  78 S6        30.05F
$$

  *****  SOME NATIONAL WEATHER *****

CITY           SKY/WX    TMP DP  RH WIND       PRES   REMARKS
LA GUARDIA NY  PTCLDY    72  54  53 N8        30.10S
RALEIGH NC     PTCLDY    68  60  75 E3        30.13R
ATLANTA GA     PTCLDY    75  65  70 E9        30.08R
NEW ORLEANS LA CLEAR     78  62  57 SE6       29.99R
OKLAHOMA CITY  MOCLDY    82  65  56 SE14      29.98R
ALBUQUERQUE NM CLOUDY    78  55  44 SW8       30.18R
SALT LAKE CITY PTCLDY    79  46  31 N7        30.14R
LOS ANGELES CA PTCLDY    75  69  81 SW9       29.88R
BOISE ID       PTCLDY    82  38  20 N5        30.00S
SEATTLE WA     MOCLDY    78  47  33 S5        29.97S
$$

*** WEATHER ACROSS MANITOBA...SASKATCHEWAN AND ONTARIO ***
                ***ONTARIO***

CITY           SKY/WX    TMP DP  RH WIND       PRES   REMARKS
GERALDTON      CLOUDY    54  48  82 SW8       29.98S
THUNDER BAY    CLEAR     54  48  82 CALM      30.00S
SIOUX LOOKOUT  MOCLDY    52  52 100 CALM      29.95R
TORONTO        PTCLDY    61  52  72 NE5       30.17R
BIG TROUT LK   MOCLDY    54  54 100 S2        29.89S
PICKLE LAKE    NOT AVBL
DRYDEN         PTCLDY    61  57  88 VRB2      29.94R
KENORA         PTCLDY    66  55  68 SE3       29.92S
$$
                *** MANITOBA***

CITY           SKY/WX    TMP DP  RH WIND       PRES   REMARKS
BRANDON        MOCLDY    66  59  77 E2        29.83F
DAUPHIN        CLEAR     63  61  94 SW5       29.81S
ISLAND LAKE    TSTM      57  57 100 NE3       29.85F
PILOT MOUND      N/A     66  63  88 S8          N/A
THE PAS        CLOUDY    63  57  82 SE6       29.79S
THOMPSON       PTCLDY    50  48  93 E2        29.81S
WINNIPEG       PTCLDY    70  61  73 S12       29.84F
LYNN LAKE      PTCLDY    57  48  72 MISG      29.77S
CHURCHILL      MOCLDY    50  48  93 S7        29.75F
$$
                ***SASKATCHEWAN***

CITY           SKY/WX    TMP DP  RH WIND       PRES   REMARKS
ESTEVAN        CLOUDY    75  63  64 S12       29.83S HAZE
KINDERSLEY     MOCLDY    64  59  82 N6        29.85R
LLOYDMINSTER   MOCLDY    66  57  72 S7        29.81S
PRINCE ALBERT  MOCLDY    59  59 100 CALM      29.79S
REGINA         PTCLDY    72  61  68 NE8       29.78S
YORKTON        MOCLDY    66  61  82 S5        29.81R
N. BATTLEFORD  CLEAR     59  54  82 NE6       29.83R
LA RONGE       TSTM      66  57  72 SE6       29.74S
SASKATOON      CLOUDY    61  57  88 W3        29.82S
SWIFT CURRENT  CLEAR     70  55  60 W3        29.87R HAZE
$$
NOTE: THESE ARE AUTOMATED STATIONS WITH LIMITED QUALITY CONTROL
      "FAIR" INDICATES FEW OR NO CLOUDS BELOW 12,000 FEET WITH NO
      SIGNIFICANT WEATHER AND/OR OBSTRUCTIONS TO VISIBILITY.
      SKY/WX - SKY CONDITION AND SIGNIFICANT WEATHER.
      TMP - AIR TEMPERATURE.    DP   - DEWPOINT TEMPERATURE.
      RH  - RELATIVE HUMIDITY.  PRES - PRESSURE.
      HX  - HEAT INDEX.         WCI  - WIND CHILL INDEX.
$



USA.gov is the U.S. government's official web portal to all federal, state and local government web resources and services.